Time,TemperatureF,DewpointF,PressureIn,WindDirection,WindDirectionDegrees,WindSpeedMPH,WindSpeedGustMPH,Humidity,HourlyPrecipIn,Conditions,Clouds,dailyrainin,SolarRadiationWatts/m^2,SoftwareType,DateUTC
2013-04-11 00:03:00,37.0,37.0,-100.00,East,87,0.0,2.0,100,0.01,,,0.14,0.000000,,2013-04-11 04:03:00,
2013-04-11 00:10:00,36.0,36.0,-100.00,SE,139,0.0,2.0,100,0.00,,,0.14,0.000000,,2013-04-11 04:10:00,
2013-04-11 00:43:00,36.0,36.0,-100.00,SE,139,0.0,2.0,100,0.00,,,0.14,0.000000,,2013-04-11 04:43:00,
2013-04-11 00:53:00,36.0,36.0,-100.00,SE,139,0.0,2.0,100,0.00,,,0.14,0.000000,,2013-04-11 04:53:00,
2013-04-11 01:03:00,36.0,36.0,-100.00,SE,139,0.0,2.0,100,0.00,,,0.14,0.000000,,2013-04-11 05:03:00,
2013-04-11 01:10:00,36.0,36.0,-100.00,East,81,0.0,0.0,100,0.00,,,0.13,0.000000,,2013-04-11 05:10:00,
2013-04-11 01:42:00,36.0,36.0,-100.00,East,81,0.0,0.0,100,0.00,,,0.13,0.000000,,2013-04-11 05:42:00,
2013-04-11 01:52:00,36.0,36.0,-100.00,East,81,0.0,0.0,100,0.00,,,0.13,0.000000,,2013-04-11 05:52:00,
2013-04-11 02:02:00,36.0,36.0,-100.00,East,81,0.0,0.0,100,0.00,,,0.13,0.000000,,2013-04-11 06:02:00,
2013-04-11 02:10:00,34.0,34.0,-100.00,East,101,1.0,2.0,100,0.00,,,0.10,0.000000,,2013-04-11 06:10:00,
2013-04-11 02:42:00,34.0,34.0,-100.00,East,101,1.0,2.0,100,0.00,,,0.10,0.000000,,2013-04-11 06:42:00,
2013-04-11 02:53:00,34.0,34.0,-100.00,East,101,1.0,2.0,100,0.00,,,0.10,0.000000,,2013-04-11 06:53:00,
2013-04-11 03:02:00,34.0,34.0,-100.00,East,101,1.0,2.0,100,0.00,,,0.10,0.000000,,2013-04-11 07:02:00,
2013-04-11 03:10:00,33.0,33.0,-100.00,West,275,0.0,2.0,100,0.00,,,0.05,0.000000,,2013-04-11 07:10:00,
2013-04-11 03:43:00,33.0,33.0,-100.00,West,275,0.0,2.0,100,0.00,,,0.05,0.000000,,2013-04-11 07:43:00,
2013-04-11 03:52:00,33.0,33.0,-100.00,West,275,0.0,2.0,100,0.00,,,0.05,0.000000,,2013-04-11 07:52:00,
2013-04-11 04:03:00,33.0,33.0,-100.00,West,275,0.0,2.0,100,0.00,,,0.05,0.000000,,2013-04-11 08:03:00,
2013-04-11 04:10:00,30.0,30.0,-100.00,ENE,72,0.0,1.0,100,0.00,,,0.03,0.000000,,2013-04-11 08:10:00,
2013-04-11 04:43:00,30.0,30.0,-100.00,ENE,72,0.0,1.0,100,0.00,,,0.03,0.000000,,2013-04-11 08:43:00,
2013-04-11 04:52:00,30.0,30.0,-100.00,ENE,72,0.0,1.0,100,0.00,,,0.03,0.000000,,2013-04-11 08:52:00,
2013-04-11 05:02:00,30.0,30.0,-100.00,ENE,72,0.0,1.0,100,0.00,,,0.03,0.000000,,2013-04-11 09:02:00,
2013-04-11 05:10:00,30.0,30.0,-100.00,South,183,1.0,2.0,100,0.00,,,0.02,0.000000,,2013-04-11 09:10:00,
2013-04-11 05:53:00,30.0,30.0,-100.00,South,183,1.0,2.0,100,0.00,,,0.02,0.000000,,2013-04-11 09:53:00,
2013-04-11 06:03:00,30.0,30.0,-100.00,South,183,1.0,2.0,100,0.00,,,0.02,0.000000,,2013-04-11 10:03:00,
2013-04-11 06:10:00,30.0,30.0,-100.00,ESE,106,2.0,4.0,100,0.00,,,0.02,0.000000,,2013-04-11 10:10:00,
2013-04-11 06:52:00,30.0,30.0,-100.00,ESE,106,2.0,4.0,100,0.00,,,0.02,0.000000,,2013-04-11 10:52:00,
2013-04-11 07:03:00,30.0,30.0,-100.00,ESE,106,2.0,4.0,100,0.00,,,0.02,0.000000,,2013-04-11 11:03:00,
2013-04-11 07:10:00,30.0,30.0,-100.00,ESE,117,2.0,5.0,100,0.00,,,-99.99,21.000000,,2013-04-11 11:10:00,
2013-04-11 07:43:00,30.0,30.0,-100.00,ESE,117,2.0,5.0,100,0.00,,,-99.99,21.000000,,2013-04-11 11:43:00,
2013-04-11 07:53:00,30.0,30.0,-100.00,ESE,117,2.0,5.0,100,0.00,,,-99.99,21.000000,,2013-04-11 11:53:00,
2013-04-11 08:02:00,30.0,30.0,-100.00,ESE,117,2.0,5.0,100,0.00,,,-99.99,21.000000,,2013-04-11 12:02:00,
2013-04-11 08:10:00,33.0,28.0,-100.00,ENE,58,2.0,5.0,81,0.00,,,-99.99,51.000000,,2013-04-11 12:10:00,
2013-04-11 08:43:00,33.0,28.0,-100.00,ENE,58,2.0,5.0,81,0.00,,,-99.99,51.000000,,2013-04-11 12:43:00,
2013-04-11 08:52:00,33.0,28.0,-100.00,ENE,58,2.0,5.0,81,0.00,,,-99.99,51.000000,,2013-04-11 12:52:00,
2013-04-11 09:02:00,33.0,28.0,-100.00,ENE,58,2.0,5.0,81,0.00,,,-99.99,51.000000,,2013-04-11 13:02:00,
2013-04-11 09:10:00,40.0,23.0,-100.00,NNW,343,2.0,6.0,51,0.00,,,0.02,320.000000,,2013-04-11 13:10:00,
2013-04-11 09:43:00,40.0,23.0,-100.00,NNW,343,2.0,6.0,51,0.00,,,0.02,320.000000,,2013-04-11 13:43:00,
2013-04-11 09:54:00,40.0,23.0,-100.00,NNW,343,2.0,6.0,51,0.00,,,0.02,320.000000,,2013-04-11 13:54:00,
2013-04-11 10:03:00,40.0,23.0,-100.00,NNW,343,2.0,6.0,51,0.00,,,0.02,320.000000,,2013-04-11 14:03:00,
2013-04-11 10:10:00,42.0,20.0,-100.00,NNE,18,3.0,6.0,41,0.00,,,0.02,489.000000,,2013-04-11 14:10:00,
2013-04-11 10:43:00,42.0,20.0,-100.00,NNE,18,3.0,6.0,41,0.00,,,0.02,489.000000,,2013-04-11 14:43:00,
2013-04-11 10:53:00,42.0,20.0,-100.00,NNE,18,3.0,6.0,41,0.00,,,0.02,489.000000,,2013-04-11 14:53:00,
2013-04-11 11:02:00,42.0,20.0,-100.00,NNE,18,3.0,6.0,41,0.00,,,0.02,489.000000,,2013-04-11 15:02:00,
2013-04-11 13:10:00,43.0,15.0,-100.00,NNE,27,2.0,7.0,32,-99.99,,,0.02,338.000000,,2013-04-11 17:10:00,
2013-04-11 13:33:00,43.0,15.0,-100.00,NNE,27,2.0,7.0,32,-99.99,,,0.02,338.000000,,2013-04-11 17:33:00,
2013-04-11 13:43:00,43.0,15.0,-100.00,NNE,27,2.0,7.0,32,-99.99,,,0.02,338.000000,,2013-04-11 17:43:00,
2013-04-11 13:53:00,43.0,15.0,-100.00,NNE,27,2.0,7.0,32,-99.99,,,0.02,338.000000,,2013-04-11 17:53:00,
2013-04-11 14:03:00,43.0,15.0,-100.00,NNE,27,2.0,7.0,32,-99.99,,,0.02,338.000000,,2013-04-11 18:03:00,
2013-04-11 14:10:00,44.0,15.0,-100.00,NNE,29,2.0,7.0,30,0.00,,,0.02,346.000000,,2013-04-11 18:10:00,
2013-04-11 14:43:00,44.0,15.0,-100.00,NNE,29,2.0,7.0,30,0.00,,,0.02,346.000000,,2013-04-11 18:43:00,
2013-04-11 14:53:00,44.0,15.0,-100.00,NNE,29,2.0,7.0,30,0.00,,,0.02,346.000000,,2013-04-11 18:53:00,
2013-04-11 15:04:00,44.0,15.0,-100.00,NNE,29,2.0,7.0,30,0.00,,,0.02,346.000000,,2013-04-11 19:04:00,
2013-04-11 15:10:00,42.0,14.0,-100.00,WSW,257,3.0,7.0,32,0.00,,,0.02,256.000000,,2013-04-11 19:10:00,
2013-04-11 15:33:00,42.0,14.0,-100.00,WSW,257,3.0,7.0,32,0.00,,,0.02,256.000000,,2013-04-11 19:33:00,
2013-04-11 15:43:00,42.0,14.0,-100.00,WSW,257,3.0,7.0,32,0.00,,,0.02,256.000000,,2013-04-11 19:43:00,
2013-04-11 15:53:00,42.0,14.0,-100.00,WSW,257,3.0,7.0,32,0.00,,,0.02,256.000000,,2013-04-11 19:53:00,
2013-04-11 16:03:00,42.0,14.0,-100.00,WSW,257,3.0,7.0,32,0.00,,,0.02,256.000000,,2013-04-11 20:03:00,
2013-04-11 16:10:00,42.0,14.0,-100.00,NW,309,2.0,7.0,31,0.00,,,0.02,230.000000,,2013-04-11 20:10:00,
2013-04-11 16:43:00,42.0,14.0,-100.00,NW,309,2.0,7.0,31,0.00,,,0.02,230.000000,,2013-04-11 20:43:00,
2013-04-11 16:53:00,42.0,14.0,-100.00,NW,309,2.0,7.0,31,0.00,,,0.02,230.000000,,2013-04-11 20:53:00,
2013-04-11 17:03:00,42.0,14.0,-100.00,NW,309,2.0,7.0,31,0.00,,,0.02,230.000000,,2013-04-11 21:03:00,
2013-04-11 17:10:00,40.0,13.0,-100.00,NNE,26,2.0,6.0,32,0.00,,,0.02,117.000000,,2013-04-11 21:10:00,
2013-04-11 17:43:00,40.0,13.0,-100.00,NNE,26,2.0,6.0,32,0.00,,,0.02,117.000000,,2013-04-11 21:43:00,
2013-04-11 17:54:00,40.0,13.0,-100.00,NNE,26,2.0,6.0,32,0.00,,,0.02,117.000000,,2013-04-11 21:54:00,
2013-04-11 18:03:00,40.0,13.0,-100.00,NNE,26,2.0,6.0,32,0.00,,,0.02,117.000000,,2013-04-11 22:03:00,
2013-04-11 18:10:00,38.0,15.0,-100.00,East,80,2.0,5.0,39,0.00,,,0.02,52.000000,,2013-04-11 22:10:00,
2013-04-11 18:33:00,38.0,15.0,-100.00,East,80,2.0,5.0,39,0.00,,,0.02,52.000000,,2013-04-11 22:33:00,
2013-04-11 18:44:00,38.0,15.0,-100.00,East,80,2.0,5.0,39,0.00,,,0.02,52.000000,,2013-04-11 22:44:00,
2013-04-11 18:53:00,38.0,15.0,-100.00,East,80,2.0,5.0,39,0.00,,,0.02,52.000000,,2013-04-11 22:53:00,
2013-04-11 19:04:00,38.0,15.0,-100.00,East,80,2.0,5.0,39,0.00,,,0.02,52.000000,,2013-04-11 23:04:00,
2013-04-11 19:10:00,36.0,15.0,-100.00,NNW,347,1.0,5.0,41,0.00,,,0.02,24.000000,,2013-04-11 23:10:00,
2013-04-11 19:33:00,36.0,15.0,-100.00,NNW,347,1.0,5.0,41,0.00,,,0.02,24.000000,,2013-04-11 23:33:00,
2013-04-11 19:43:00,36.0,15.0,-100.00,NNW,347,1.0,5.0,41,0.00,,,0.02,24.000000,,2013-04-11 23:43:00,
2013-04-11 19:54:00,36.0,15.0,-100.00,NNW,347,1.0,5.0,41,0.00,,,0.02,24.000000,,2013-04-11 23:54:00,
2013-04-11 20:02:00,36.0,15.0,-100.00,NNW,347,1.0,5.0,41,0.00,,,0.02,24.000000,,2013-04-12 00:02:00,
2013-04-11 21:10:00,34.0,19.0,-100.00,NNE,25,2.0,4.0,54,-99.99,,,0.02,0.000000,,2013-04-12 01:10:00,
2013-04-11 21:33:00,34.0,19.0,-100.00,NNE,25,2.0,4.0,54,-99.99,,,0.02,0.000000,,2013-04-12 01:33:00,
2013-04-11 21:42:00,34.0,19.0,-100.00,NNE,25,2.0,4.0,54,-99.99,,,0.02,0.000000,,2013-04-12 01:42:00,
2013-04-11 21:52:00,34.0,19.0,-100.00,NNE,25,2.0,4.0,54,-99.99,,,0.02,0.000000,,2013-04-12 01:52:00,
2013-04-11 22:03:00,34.0,19.0,-100.00,NNE,25,2.0,4.0,54,-99.99,,,0.02,0.000000,,2013-04-12 02:03:00,
2013-04-11 22:10:00,33.0,18.0,-100.00,NE,46,2.0,5.0,53,0.00,,,0.01,0.000000,,2013-04-12 02:10:00,
2013-04-11 22:42:00,33.0,18.0,-100.00,NE,46,2.0,5.0,53,0.00,,,0.01,0.000000,,2013-04-12 02:42:00,
2013-04-11 22:52:00,33.0,18.0,-100.00,NE,46,2.0,5.0,53,0.00,,,0.01,0.000000,,2013-04-12 02:52:00,
2013-04-11 23:02:00,33.0,18.0,-100.00,NE,46,2.0,5.0,53,0.00,,,0.01,0.000000,,2013-04-12 03:02:00,
2013-04-11 23:10:00,32.0,18.0,-100.00,ESE,112,2.0,4.0,56,0.00,,,0.00,0.000000,,2013-04-12 03:10:00,
2013-04-11 23:33:00,32.0,18.0,-100.00,ESE,112,2.0,4.0,56,0.00,,,0.00,0.000000,,2013-04-12 03:33:00,
2013-04-11 23:43:00,32.0,18.0,-100.00,ESE,112,2.0,4.0,56,0.00,,,0.00,0.000000,,2013-04-12 03:43:00,
2013-04-11 23:53:00,32.0,18.0,-100.00,ESE,112,2.0,4.0,56,0.00,,,0.00,0.000000,,2013-04-12 03:53:00,